This demonstration page uses our WeatherBlox Daily Observations layout. Learn more.

Left ArrowRight Arrow

34.02893, -84.19858

Hourly Observations for February 25, 2020

Temp ( °F °C ) Dew Point ( °F °C ) Humidity (%) Winds ( mph kmh ) Pressure ( in mb ) Visibility ( mi km ) Precip ( " mm )
12:51 am 00:51 Cloudy with Mist and Fog 46 8 46 8 100 100 Calm 29.84 1010 4 6 0.00 0.00
12:53 am 00:53 Cloudy with Light Rain 47 8.3 47 8.3 100 100 Calm 29.84 1010 3 5 0.00 0.00
1:28 am 01:28 Cloudy with Mist and Fog 47 8.3 47 8.3 100 100 Calm 29.82 1010 2 3 0.00 0.00
1:48 am 01:48 Cloudy with Mist and Fog 46 8 46 8 100 100 Calm 29.82 1010 3 5 0.00 0.00
1:53 am 01:53 Cloudy with Light Rain 47 8.3 47 8.3 100 100 ENE 3 6 29.82 1010 3 5 0.00 0.00
2:53 am 02:53 Cloudy with Mist and Fog 47 8.3 47 8.3 100 100 NNE 6 9 29.82 1010 4 6 0.01 0.25
3:24 am 03:24 Cloudy with Mist and Fog 47 8.3 47 8.3 100 100 E 3 6 29.81 1009 2 3 0.00 0.00
3:32 am 03:32 Cloudy with Light Rain 47 8.3 47 8.3 100 100 E 3 6 29.81 1009 2 2 0.00 0.00
3:53 am 03:53 Cloudy with Light Rain 47 8.3 47 8.3 100 100 VRB 3 6 29.80 1009 3 4 0.03 0.76
4:11 am 04:11 Cloudy with Light Rain 47 8.3 47 8.3 100 100 Calm 29.81 1009 3 5 0.01 0.25
4:29 am 04:29 Cloudy with Mist and Fog 48 8.9 47 8.3 96 96 VRB 5 7 29.80 1009 6 10 0.02 0.51
4:53 am 04:53 Cloudy with Mist and Fog 48 8.9 47 8.3 96 96 Calm 29.80 1009 6 10 0.02 0.51
5:14 am 05:14 Cloudy with Mist and Fog 47 8.3 47 8.3 100 100 Calm 29.81 1009 5 8 0.00 0.00
5:53 am 05:53 Cloudy with Mist and Fog 47 8.3 47 8.3 100 100 Calm 29.82 1010 3 5 0.00 0.00
6:00 am 06:00 Cloudy with Mist and Fog 47 8.3 47 8.3 100 100 Calm 29.82 1010 3 4 0.00 0.00
6:20 am 06:20 Cloudy with Mist and Fog 47 8.3 47 8.3 100 100 Calm 29.83 1010 1 2 0.00 0.00
6:53 am 06:53 Cloudy with Mist and Fog 47 8.3 47 8.3 100 100 NE 3 6 29.83 1010 1 2 0.00 0.00
7:13 am 07:13 Cloudy with Mist and Fog 47 8.3 47 8.3 100 100 Calm 29.84 1010 1 1 0.00 0.00
7:20 am 07:20 Mostly Cloudy with Fog 47 8.3 47 8.3 100 100 Calm 29.84 1010 0 0 0.00 0.00
7:53 am 07:53 Mostly Cloudy with Fog 48 8.9 48 8.9 100 100 Calm 29.84 1011 1 1 0.00 0.00
8:53 am 08:53 Mostly Cloudy with Fog 49 9.4 49 9.4 100 100 Calm 29.86 1011 1 1 0.00 0.00
9:27 am 09:27 Cloudy with Mist and Fog 50 10 49 9.4 96 96 Calm 29.86 1011 1 1 0.00 0.00
9:36 am 09:36 Cloudy with Fog 51 10.6 50 10 96 96 Calm 29.86 1011 1 1 0.00 0.00
9:53 am 09:53 Cloudy with Fog 51 10.6 51 10.6 100 100 Calm 29.87 1011 1 1 0.00 0.00
10:39 am 10:39 Cloudy with Mist and Fog 53 11.7 53 11.7 100 100 S 3 6 29.86 1011 1 2 0.00 0.00
10:53 am 10:53 Cloudy with Mist and Fog 53 11.7 53 11.7 100 100 WSW 3 6 29.87 1012 3 4 0.00 0.00
11:15 am 11:15 Cloudy with Mist and Fog 54 12.2 54 12.2 100 100 W 6 9 29.87 1012 2 3 0.00 0.00
11:24 am 11:24 Cloudy with Mist and Fog 55 12.8 54 12.2 96 96 WSW 5 7 29.87 1012 2 3 0.00 0.00
11:53 am 11:53 Mostly Cloudy with Mist and Fog 59 15 55 12.8 87 87 WSW 7 11 29.87 1012 5 8 0.00 0.00
12:09 pm 12:09 Partly Cloudy 58 14.4 53 11.7 84 84 W 5 7 29.85 1011 10 16 0.00 0.00
12:33 pm 12:33 Mostly Cloudy 60 15.6 54 12.2 80 80 VRB 3 6 29.84 1010 10 16 0.00 0.00
12:53 pm 12:53 Mostly Cloudy 61 16.1 54 12.2 78 78 W 6 9 29.84 1011 10 16 0.00 0.00
1:10 pm 13:10 Partly Cloudy 62 16.7 54 12.2 75 75 W 6 9 29.82 1010 10 16 0.00 0.00
1:20 pm 13:20 Mostly Cloudy 62 16.7 54 12.2 75 75 VRB 7 11 29.82 1010 10 16 0.00 0.00
1:22 pm 13:22 Partly Cloudy 63 17.2 54 12.2 73 73 W 6 9 29.81 1010 10 16 0.00 0.00
1:53 pm 13:53 Partly Cloudy 62 16.7 53 11.7 73 73 SSW 7 11 29.81 1010 10 16 0.00 0.00
2:53 pm 14:53 Mostly Sunny 64 17.8 53 11.7 68 68 WSW 7 11 29.80 1009 10 16 0.00 0.00
3:53 pm 15:53 Sunny 64 17.8 50 10 60 60 W 9 15 29.80 1009 10 16 0.00 0.00
4:53 pm 16:53 Sunny 64 17.8 49 9.4 58 58 W 8 13 29.81 1009 10 16 0.00 0.00
5:53 pm 17:53 Sunny 62 16.7 48 8.9 60 60 WNW 8 13 29.83 1010 10 16 0.00 0.00
6:53 pm 18:53 Clear 59 15 47 8.3 64 64 W 5 7 29.84 1011 10 16 0.00 0.00
7:53 pm 19:53 Clear 57 13.9 49 9.4 74 74 NW 5 7 29.86 1011 10 16 0.00 0.00
8:53 pm 20:53 Clear 55 12.8 48 8.9 77 77 NNW 8 13 29.88 1012 10 16 0.00 0.00
9:53 pm 21:53 Clear 54 12.2 47 8.3 77 77 NW 6 9 29.90 1013 10 16 0.00 0.00
10:53 pm 22:53 Clear 52 11.1 46 7.8 80 80 W 3 6 29.90 1013 10 16 0.00 0.00
11:53 pm 23:53 Clear 51 10.6 46 7.8 83 83 Calm 29.89 1012 10 16 0.00 0.00

Powered by AerisWeather